Vertical_Velocity
-2 -1 -0 -1 -2 -3 -4 -3 -3 -4 -3 -2 -4 -0 -2 -8 -2 -6 -1 -1 -1 1 -3 -3 -0 3 6 4 5 0 -2 24 5 -1 10 8 -0 8 5 3 3 -8 -1 6 7
1 1 -2 -1 -1 -2 -2 -4 -4 -2 -3 -3 -3 -2 -6 -5 -2 -3 -2 4 -2 1 4 -1 1 2 2 4 2 0 -3 -0 29 -3 2 9 4 12 -1 3 -1 -5 -0 10 6
-1 -1 -3 -4 -4 -3 -3 -1 -3 -1 2 0 -2 -5 -5 -8 -2 -3 -1 -1 4 4 3 0 2 -1 3 -1 5 7 -10 7 6 2 4 9 13 8 8 2 -4 -6 -3 5 12
-1 -1 -2 -3 -5 -3 0 -1 0 -1 -3 -5 -7 -5 -6 -1 1 -0 2 -0 -3 -1 -2 3 -0 -3 1 -2 5 -4 1 -4 10 -2 5 4 8 6 8 -0 -1 -3 -3 8 8
-2 -2 -2 -4 -6 -5 -5 -5 -2 -1 -3 -6 -4 -4 -3 -5 -1 1 -5 -1 -3 -3 -1 -1 -0 -1 -2 2 0 -4 -2 -1 4 5 -1 -0 9 23 -4 20 -4 -0 -5 8 1
-1 -1 -2 -1 -4 -6 -3 -4 -2 -2 -5 -5 -1 -2 -9 -8 -5 -0 0 -4 -7 -4 -1 -1 -1 1 -0 2 -3 -0 -2 2 -1 -3 -6 3 9 8 2 39 -2 2 -5 5 6
-1 -1 -2 -0 -2 -4 -5 -2 -3 -3 -3 -0 -1 -9 -7 1 -2 -3 -4 3 2 -1 1 -1 1 -0 3 2 -3 1 -1 2 3 5 2 4 -4 4 17 43 6 2 -2 8 6
-0 -1 -0 0 1 -3 -4 -2 -2 1 -3 -7 -4 -12 -2 -3 -1 -1 0 -4 -2 -1 -2 -0 0 -0 1 0 -1 -4 1 1 3 1 7 3 -1 10 3 12 7 2 -1 8 3
-1 -1 -1 -2 -1 1 -4 -2 -5 -3 -10 0 -9 -4 -3 -6 -8 -3 -4 1 -3 -2 -1 -2 -1 -1 -0 -1 0 -3 0 3 -2 -1 3 -5 6 7 19 20 13 -0 1 7 8
-4 -1 -1 -1 -0 -0 -2 -3 -5 -2 -4 -3 -5 -6 -4 3 -5 -2 -5 -2 -3 -4 -2 -2 -1 -1 -1 -1 0 -1 1 2 -2 -4 1 4 3 5 -5 -24 67 3 -1 5 4
-3 -2 -1 -2 -3 -3 2 -0 -6 -4 -10 -4 -14 -21 -9 -11 -3 -4 2 1 -2 -3 -2 -1 -1 -2 -1 -2 0 -1 -0 -5 -6 -6 -0 3 6 -4 2 20 27 0 1 2 4
-3 -2 1 0 -3 -3 -5 -4 -2 12 -8 -3 -6 -9 -6 -5 3 -2 -2 0 -2 -4 -2 -2 -2 1 -1 -1 -1 -1 2 1 0 -5 4 4 9 -3 8 -0 1 27 3 7 1
-1 -1 -3 -2 -0 -8 -1 -8 -9 -3 -0 -4 -5 -5 -4 -7 -0 -1 -2 0 -3 -4 -3 -2 -1 -1 1 -1 -0 -1 4 -0 -3 0 -2 7 -4 0 6 11 7 6 12 3 18
-2 -1 0 0 0 1 -4 -6 -7 -2 -1 3 5 -7 2 -5 -7 -3 -7 0 -2 -2 -2 -2 -2 0 -1 1 0 4 -2 -2 -2 2 -4 -0 2 -3 1 1 5 -12 5 -1 -2
-1 1 1 -3 -4 -5 -2 -7 -7 -1 -4 -4 -6 -11 -20 -10 -0 -5 2 -7 -2 -4 -2 -0 -2 -1 -0 -1 1 -0 0 1 -0 0 -2 -0 -4 -2 -7 12 15 12 11 6 5
-0 -1 -1 -2 -5 -2 -3 -5 -5 -5 -1 5 -1 0 -2 -1 -2 -4 -3 1 -3 -5 -1 -2 -1 -3 1 -1 2 2 1 2 1 -2 -2 4 1 -2 8 29 17 2 -2 -1 -1
-2 -2 -0 2 0 -1 -4 -6 -5 -4 -5 -7 -2 -8 -4 -2 -1 -1 0 2 -3 -2 -5 -4 -0 -1 -1 0 1 3 -3 -0 2 -5 -3 -5 0 4 -3 -7 -5 -1 -10 1 9
-1 -5 -4 -0 -3 -4 -7 -6 0 -3 -4 -15 -0 -6 -2 6 -2 1 -2 -3 -1 -1 -5 -3 0 -1 -0 -1 2 0 2 0 -1 0 0 3 -2 -5 -4 -1 1 5 -2 10 -1
1 1 -3 -1 -3 -4 -5 -3 3 -2 -3 -2 -5 5 -1 -2 -3 -7 -3 -0 0 -2 -5 -2 -1 -1 -1 -1 -2 0 2 -0 -0 9 6 8 -0 1 -2 -4 -6 -4 6 -0 0
-1 2 1 1 0 -2 -3 -2 -2 -1 -2 -6 -5 -1 -6 -3 2 6 -0 -1 -2 0 -0 -1 -2 1 -0 -0 -0 -2 6 1 0 5 0 0 10 -3 -7 -5 -10 2 2 -15 -0
-1 -1 -2 -3 -1 0 -5 -3 -4 -0 -0 -3 1 -3 -7 2 -5 -7 2 -3 -2 1 0 -1 -2 -4 -2 -2 -1 2 -0 2 -2 2 -1 5 14 2 2 -0 -4 -1 -4 0 2
-0 -3 -6 -6 -5 -3 -5 -2 -2 -7 -5 1 -4 -3 -4 0 1 0 0 -1 -2 -1 -0 0 0 -3 -1 -0 1 -1 1 3 2 3 -3 -1 3 5 2 -4 -2 2 -5 -1 3
-5 -2 2 0 -1 -3 -0 3 -1 -4 -5 -4 -8 -1 -5 -4 -0 3 -7 2 1 -1 -2 1 1 -2 0 3 2 1 0 1 2 -2 2 3 -5 -2 8 2 -3 -5 2 -3 4
-1 -10 -3 1 -0 -0 -4 0 -1 1 -1 1 -1 1 2 -7 -3 -2 -4 -2 1 0 -0 0 0 -1 -2 -1 2 0 4 7 1 -1 8 1 5 4 0 7 6 9 4 0 -11
-6 -6 -1 -5 -2 -5 -3 2 -6 -2 -4 -7 -5 -4 -1 -4 -5 -2 -5 0 -1 2 -1 1 1 0 -3 -0 1 2 -3 6 0 4 -0 -2 1 1 -3 -1 -2 -2 -3 -6 -3
-6 -7 -5 -3 0 -3 -3 -1 -4 3 2 -1 -2 -3 -3 -3 -5 5 0 -3 -3 2 -1 0 0 -0 -3 1 1 -0 -2 3 1 1 5 3 1 4 0 -2 -4 -1 -1 0 -2
-7 -6 -2 0 -5 -2 -5 -5 -6 -7 1 4 1 -0 1 -6 -5 -2 3 -2 -2 -1 2 0 -0 -0 -2 1 0 1 2 -3 3 8 8 7 2 3 3 -2 -3 -7 -4 3 5
Height
5810 5805 5799 5793 5787 5781 5774 5767 5760 5752 5746 5738 5728 5717 5704 5691 5673 5656 5638 5621 5594 5579 5572 5572 5568 5567 5569 5572 5573 5579 5581 5589 5597 5605 5619 5630 5644 5654 5666 5675 5687 5700 5715 5728 5738
5808 5802 5795 5788 5781 5774 5768 5761 5753 5746 5739 5729 5718 5706 5691 5675 5658 5636 5616 5596 5583 5570 5561 5557 5555 5555 5559 5562 5564 5567 5572 5583 5590 5599 5610 5623 5635 5647 5657 5668 5680 5694 5706 5720 5727
5804 5797 5790 5782 5776 5769 5762 5755 5748 5739 5730 5720 5708 5695 5679 5660 5639 5620 5599 5580 5567 5558 5551 5548 5546 5548 5550 5552 5557 5561 5566 5576 5584 5593 5604 5612 5624 5636 5649 5662 5673 5685 5698 5711 5720
5798 5792 5785 5777 5769 5763 5756 5749 5741 5732 5722 5711 5698 5684 5665 5644 5627 5601 5581 5567 5557 5550 5545 5541 5539 5541 5544 5547 5550 5553 5562 5569 5576 5585 5595 5606 5618 5629 5641 5654 5667 5679 5691 5704 5714
5793 5786 5779 5772 5764 5756 5750 5742 5734 5725 5714 5702 5688 5671 5651 5631 5611 5587 5570 5557 5549 5544 5538 5534 5533 5535 5538 5541 5544 5550 5557 5561 5569 5578 5588 5598 5610 5621 5635 5646 5660 5674 5686 5698 5708
5789 5781 5774 5766 5759 5752 5744 5736 5726 5716 5705 5693 5677 5659 5640 5618 5596 5576 5564 5554 5546 5540 5533 5529 5528 5530 5534 5537 5540 5547 5552 5558 5564 5573 5584 5594 5604 5611 5629 5639 5653 5666 5678 5692 5705
5785 5776 5769 5762 5754 5746 5738 5730 5720 5708 5697 5683 5666 5649 5629 5610 5586 5570 5560 5553 5544 5538 5530 5526 5524 5527 5531 5535 5537 5544 5549 5554 5562 5571 5580 5589 5597 5609 5622 5637 5648 5660 5672 5684 5697
5780 5772 5763 5756 5749 5740 5732 5724 5713 5702 5688 5673 5657 5640 5621 5599 5580 5569 5559 5551 5544 5536 5528 5524 5522 5524 5528 5532 5535 5541 5547 5552 5559 5568 5577 5585 5596 5607 5617 5628 5643 5655 5666 5677 5690
5773 5767 5759 5752 5745 5735 5726 5716 5706 5694 5680 5664 5648 5631 5614 5592 5575 5566 5559 5551 5543 5536 5529 5523 5521 5522 5526 5530 5534 5540 5545 5550 5558 5565 5574 5584 5592 5601 5610 5620 5638 5649 5660 5672 5683
5769 5761 5754 5746 5739 5730 5720 5710 5699 5687 5672 5656 5642 5622 5605 5592 5574 5565 5556 5550 5544 5537 5530 5524 5521 5521 5524 5529 5534 5539 5544 5550 5557 5565 5572 5579 5588 5597 5608 5618 5628 5642 5653 5666 5677
5764 5756 5748 5740 5733 5725 5716 5703 5694 5680 5665 5651 5635 5615 5596 5581 5574 5564 5557 5550 5545 5539 5532 5526 5523 5521 5524 5527 5532 5538 5544 5548 5556 5563 5570 5576 5585 5591 5604 5609 5624 5638 5649 5660 5670
5759 5751 5743 5735 5727 5719 5708 5700 5690 5677 5658 5644 5627 5608 5594 5582 5573 5563 5556 5552 5546 5541 5535 5530 5524 5522 5523 5526 5532 5538 5543 5548 5554 5560 5567 5572 5582 5590 5600 5613 5621 5634 5645 5655 5666
5754 5746 5738 5731 5722 5713 5703 5692 5680 5669 5656 5642 5629 5612 5596 5583 5574 5566 5558 5552 5547 5542 5537 5532 5527 5523 5524 5526 5531 5537 5542 5546 5553 5559 5565 5571 5579 5587 5601 5610 5615 5626 5640 5650 5662
5750 5743 5735 5728 5720 5708 5697 5686 5675 5663 5651 5636 5625 5613 5598 5584 5575 5565 5559 5554 5547 5543 5538 5534 5529 5526 5524 5526 5532 5536 5540 5546 5552 5558 5564 5570 5579 5587 5598 5606 5612 5623 5634 5647 5657
5745 5738 5729 5719 5713 5703 5693 5681 5669 5660 5647 5634 5620 5605 5590 5583 5573 5566 5560 5552 5547 5543 5540 5537 5532 5528 5525 5525 5531 5537 5542 5547 5552 5558 5565 5572 5579 5586 5595 5607 5613 5617 5631 5645 5652
5740 5732 5724 5716 5707 5697 5685 5675 5664 5658 5644 5630 5617 5604 5591 5582 5573 5564 5560 5555 5547 5543 5541 5537 5534 5530 5526 5525 5530 5536 5542 5547 5552 5557 5564 5572 5581 5588 5594 5603 5609 5615 5625 5638 5649
5734 5726 5719 5712 5702 5691 5680 5671 5664 5653 5643 5630 5619 5604 5590 5581 5572 5565 5560 5554 5547 5544 5540 5538 5535 5532 5529 5527 5530 5536 5541 5546 5552 5556 5565 5570 5577 5584 5590 5596 5603 5610 5621 5637 5648
5728 5720 5714 5706 5696 5686 5677 5667 5658 5647 5633 5622 5611 5597 5589 5580 5572 5565 5558 5552 5547 5543 5541 5539 5537 5533 5530 5529 5531 5534 5540 5545 5551 5557 5567 5572 5579 5583 5590 5597 5605 5615 5625 5636 5644
5723 5715 5708 5699 5690 5682 5673 5663 5654 5644 5635 5625 5612 5599 5588 5575 5569 5564 5558 5552 5546 5542 5541 5539 5537 5534 5532 5530 5532 5535 5540 5545 5551 5558 5565 5570 5578 5583 5589 5596 5604 5612 5621 5628 5638
5718 5710 5703 5695 5685 5676 5669 5660 5650 5640 5629 5617 5607 5597 5587 5576 5569 5560 5554 5549 5544 5541 5539 5538 5537 5534 5533 5531 5531 5536 5541 5545 5550 5556 5563 5571 5579 5584 5590 5597 5604 5611 5620 5626 5635
5713 5705 5698 5689 5680 5672 5664 5656 5647 5638 5628 5617 5603 5592 5583 5573 5564 5558 5553 5547 5541 5539 5538 5538 5537 5536 5533 5532 5531 5535 5540 5545 5550 5556 5562 5571 5577 5583 5590 5598 5604 5610 5617 5627 5634
5706 5699 5692 5685 5677 5668 5658 5649 5642 5633 5624 5614 5603 5591 5581 5569 5562 5555 5550 5544 5538 5536 5536 5537 5536 5535 5535 5532 5530 5533 5539 5546 5551 5556 5561 5568 5577 5583 5589 5597 5603 5609 5617 5622 5630
5700 5694 5688 5679 5671 5662 5653 5645 5637 5629 5620 5609 5599 5589 5578 5568 5560 5553 5547 5542 5536 5533 5534 5536 5537 5536 5536 5536 5534 5534 5539 5545 5550 5555 5560 5568 5576 5581 5588 5594 5600 5606 5615 5620 5629
5694 5687 5680 5672 5664 5656 5648 5641 5633 5625 5617 5608 5598 5588 5576 5565 5557 5551 5546 5540 5534 5531 5531 5535 5536 5537 5537 5536 5536 5536 5540 5545 5550 5556 5560 5565 5572 5579 5584 5590 5597 5604 5611 5617 5626
5686 5680 5672 5665 5658 5651 5643 5635 5628 5621 5612 5603 5595 5584 5575 5564 5555 5548 5543 5538 5533 5530 5530 5534 5535 5536 5536 5536 5536 5536 5540 5545 5549 5554 5558 5563 5571 5577 5583 5589 5595 5602 5609 5616 5625
5679 5671 5666 5659 5652 5645 5638 5633 5625 5617 5607 5598 5589 5579 5571 5562 5554 5546 5541 5536 5532 5529 5529 5532 5534 5535 5536 5536 5535 5536 5538 5543 5548 5553 5559 5562 5569 5575 5581 5586 5595 5603 5608 5614 5622
5669 5664 5659 5653 5646 5639 5633 5627 5620 5613 5607 5595 5587 5577 5568 5560 5553 5546 5540 5535 5531 5529 5528 5531 5532 5534 5535 5535 5534 5536 5536 5541 5545 5550 5556 5562 5567 5571 5578 5585 5592 5600 5607 5612 5618